Effective Sunday, March 17, 2024, the National Weather Service National Data Buoy Center will discontinue its Dial-A-Buoy Interactive Voice Response system. For more information, see Service Change Notice 24-06 (PDF).

Station 46086 (LLNR 81) - SAN CLEMENTE BASIN - 27NM SE Of San Clemente Is, CA Image indicating link to RSS feed of recent meteorological observations for station 46086


Conditions at 46086 as of
(9:30 am PST)
1730 GMT on 02/29/2024:
     

Click on the graph icon in the table below to see a time series plot of the last five days of that observation.

5-day plot - Wind Direction Wind Direction (WDIR):NNW ( 330 deg true )
5-day plot - Wind Speed Wind Speed (WSPD): 3.9 kts
5-day plot - Wind Gust Wind Gust (GST): 3.9 kts
5-day plot - Atmospheric Pressure Atmospheric Pressure (PRES):30.16 in
5-day plot - Air Temperature Air Temperature (ATMP): 59.9 °F
5-day plot - Water Temperature Water Temperature (WTMP): 60.4 °F
5-day plot - Dew Point Dew Point (DEWP): 50.5 °F
5-day plot - Wind Speed at 10 Meters Wind Speed at 10 meters (WSPD10M): 3.9 kts
5-day plot - Wind Speed at 20 Meters Wind Speed at 20 meters (WSPD20M): 3.9 kts
5-day plot -  Wind Speed, Wind Gust and Atmospheric Pressure Combined plot of Wind Speed, Gust, and Air Pressure
Supplemental Measurements
Highest 1-minute Wind Speed
Time (PST)5-day plot - 1-Minute Wind Speed WSPD 5-day plot - 1-Minute Wind Direction WDIR
9:27 am 3.9 kts-
Previous observations
TIME
(PST)
5-day plot - Wind Direction
WDIR
 
5-day plot - Wind Speed
WSPD
kts
5-day plot - Wind Gust
GST
kts
5-day plot - Wave Height
WVHT
ft
5-day plot - Dominant Wave Period
DPD
sec
5-day plot - Average Wave Period
APD
sec
5-day plot - Mean Wave Direction
MWD
 
5-day plot - Atmospheric Pressure
PRES
in
5-day plot - Pressure Tendency
PTDY
in
5-day plot - Air Temperature
ATMP
°F
5-day plot - Water Temperature
WTMP
°F
5-day plot - Dew Point
DEWP
°F
5-day plot - Salinity
SAL
psu
5-day plot - Visibility
VIS
nmi
5-day plot - Tide (above MLLW)
TIDE
ft
2024-02-29 09:20 am NW 3.9 3.9 3.3 127.1 W30.16- 59.9 60.4 50.7---
2024-02-29 09:10 amNNW 3.9 5.8----30.16- 59.7 60.4 50.7---
2024-02-29 09:00 amNNW 3.9 5.8----30.16+0.06 59.7 60.4 50.7---
2024-02-29 08:50 amNNW 5.8 7.8 3.6 147.4SSW30.16- 59.7 60.4 51.3---
2024-02-29 08:40 am NW 5.8 7.8----30.16- 59.9 60.4 51.6---
2024-02-29 08:30 am NW 5.8 5.8----30.16- 59.9 60.4 50.2---
2024-02-29 08:20 am NW 5.8 5.8 3.3 147.2 S30.16- 59.9 60.4 50.4---
2024-02-29 08:10 am NW 5.8 7.8 3.3-7.2 S30.15- 59.9 60.4 49.6---
2024-02-29 08:00 amWNW 5.8 7.8----30.16+0.06 59.9 60.4 50.0---
2024-02-29 07:50 amWNW 3.9 5.8 3.3 136.9WSW30.15- 59.9 60.4 49.6---
2024-02-29 07:40 amWNW 3.9 5.8 3.3-6.9WSW30.15- 59.7 60.4 50.7---
2024-02-29 07:30 am NW 5.8 7.8----30.14- 59.7 60.4 51.1---
2024-02-29 07:20 am NW 5.8 7.8 3.6 137.1WSW30.14- 59.7 60.4 51.3---
2024-02-29 07:10 amWNW 7.8 9.7 3.6-7.1WSW30.13- 59.7 60.4 51.6---
2024-02-29 07:00 am W 7.8 9.7----30.13+0.05 59.7 60.4 52.2---
2024-02-29 06:50 am W 5.8 7.8 3.3 137.0 SW30.13- 59.9 60.4 51.4---
2024-02-29 06:40 amWNW 5.8 7.8 3.3-7.0 SW30.12- 59.9 60.4 50.4---
2024-02-29 06:30 amWNW 7.8 9.7----30.12- 59.7 60.4 50.0---
2024-02-29 06:20 amWNW 7.8 9.7 3.3 146.8 SW30.11- 59.7 60.4 51.4---
2024-02-29 06:10 amWNW 5.8 9.7 3.3-6.8 SW30.11- 59.7 60.4 51.3---
2024-02-29 06:00 amWNW 5.8 5.8----30.11+0.04 59.7 60.4 51.8---
2024-02-29 05:50 am W 5.8 7.8 3.3 147.2 SW30.11- 59.7 60.4 52.0---
2024-02-29 05:40 amWNW 5.8 7.8----30.11- 59.9 60.4 51.8---
2024-02-29 05:30 am W 5.8 9.7----30.11- 59.7 60.4 51.1---
2024-02-29 05:20 am W 3.9 5.8 3.6 137.1WSW30.10- 59.5 60.4 52.3---
2024-02-29 05:10 amWSW 3.9 5.8 3.6-7.1WSW30.10- 59.5 60.3 51.6---
2024-02-29 05:00 am W 3.9 5.8----30.10+0.02 59.5 60.3 52.2---
2024-02-29 04:50 amWSW 3.9 5.8 3.6 137.4WSW30.09- 59.5 60.3 52.0---
2024-02-29 04:40 am SW 3.9 5.8 3.6-7.4WSW30.09- 59.5 60.3 51.8---
2024-02-29 04:30 amWSW 3.9 7.8----30.08- 59.4 60.3 51.6---
2024-02-29 04:20 amSSW 3.9 5.8 3.3 146.7 SW30.08- 59.4 60.3 51.6---
2024-02-29 04:10 am W 5.8 7.8----30.08- 59.2 60.3 51.1---
2024-02-29 04:00 am W 5.8 9.7----30.08+0.00 59.2 60.3 51.4---
2024-02-29 03:50 am W 5.8 7.8 3.3 146.8WSW30.08- 59.0 60.3 51.3---
2024-02-29 03:40 am W 5.8 7.8----30.08- 59.0 60.3 51.3---
2024-02-29 03:30 am W 5.8 9.7----30.07- 58.8 60.3 51.1---
2024-02-29 03:20 am W 5.8 9.7 3.6 146.9SSW30.07- 59.0 60.3 51.6---
2024-02-29 03:10 amWSW 3.9 7.8 3.6-6.9SSW30.07- 59.0 60.3 51.8---
2024-02-29 03:00 amWSW 3.9 7.8----30.07-0.01 58.8 60.3 51.8---
2024-02-29 02:50 am W 3.9 5.8 4.3 147.7 SW30.07- 58.8 60.3 52.0---
2024-02-29 02:40 amWSW 5.8 7.8----30.07- 58.8 60.3 51.4---
2024-02-29 02:30 am W 7.8 11.7----30.07- 58.8 60.3 51.8---
2024-02-29 02:20 amWSW 5.8 9.7 3.6 147.2 SW30.07- 58.8 60.3 51.8---
2024-02-29 02:10 amWSW 3.9 7.8----30.07- 58.6 60.3 51.6---
2024-02-29 02:00 am SW 7.8 9.7----30.07+0.00 58.6 60.3 51.6---
2024-02-29 01:50 am SW 5.8 9.7 3.6 137.1WSW30.07- 58.6 60.3 51.8---
2024-02-29 01:40 amWSW 5.8 9.7----30.07- 58.5 60.3 51.8---
2024-02-29 01:30 am SW 7.8 9.7----30.07- 58.5 60.3 52.3---
2024-02-29 01:20 am SW 5.8 9.7 3.6 146.7 SW30.08- 58.3 60.3 52.3---
2024-02-29 01:10 am SW 5.8 9.7 3.6-6.7 SW30.08- 58.3 60.3 52.3---
2024-02-29 01:00 am SW 5.8 11.7----30.08+0.01 58.1 60.3 52.3---
2024-02-29 12:50 am SW 5.8 9.7 4.3 147.2WSW30.08- 58.1 60.3 52.5---
2024-02-29 12:40 amSSW 5.8 7.8----30.08- 58.1 60.3 52.5---
2024-02-29 12:30 am SW 5.8 9.7----30.08- 57.9 60.3 52.5---
2024-02-29 12:20 amWSW 3.9 7.8 3.9 147.1 SW30.08- 57.7 60.3 52.3---
2024-02-29 12:10 amSSW 3.9 7.8 3.9-7.1 SW30.08- 57.7 60.3 52.3---
2024-02-29 12:00 am SW 5.8 9.7----30.08+0.02 57.7 60.4 52.3---
2024-02-28 11:50 pm W 5.8 9.7 3.6 146.8WSW30.08- 57.9 60.4 52.7---
2024-02-28 11:40 pmWSW 3.9 9.7----30.07- 57.9 60.4 52.7---
2024-02-28 11:30 pm SW 1.9 3.9----30.07- 57.6 60.4 52.2---
2024-02-28 11:20 pmSSW 3.9 7.8 4.3 147.4 SW30.07- 57.7 60.4 52.7---
2024-02-28 11:10 pmWSW 5.8 7.8 4.3-7.4 SW30.07- 57.7 60.4 52.7---
2024-02-28 11:00 pm W 5.8 9.7----30.07+0.03 57.9- 52.9---
2024-02-28 10:50 pm W 3.9 5.8 3.9 146.8 SW30.07- 58.1 60.4 53.1---
2024-02-28 10:40 pm W 1.9 3.9----30.07- 58.1 60.4 53.1---
2024-02-28 10:30 pmSSW 3.9 5.8----30.07- 58.1 60.4 52.9---
2024-02-28 10:20 pm W 3.9 5.8 3.9 126.6WSW30.07- 57.9 60.3 52.5---
2024-02-28 10:10 pm W 3.9 7.8 3.9-6.6WSW30.07- 58.1 60.3 52.9---
2024-02-28 10:00 pm W 3.9 5.8----30.07+0.04 58.3 60.4 53.1---
2024-02-28 09:50 pm N 1.9 3.9 4.3 146.9 SW30.07- 58.1 60.4 52.7---
2024-02-28 09:40 pm N 3.9 5.8----30.07- 58.1 60.4 52.9---
2024-02-28 09:30 pm NW 3.9 7.8----30.06- 58.1 60.4 52.9---
2024-02-28 09:20 pm NW 3.9 7.8 3.9 126.5 W30.06- 58.1 60.4 53.1---
2024-02-28 09:10 pmWSW 1.9 3.9 3.9-6.5 W30.06- 58.1 60.4 53.2---
2024-02-28 09:00 pm W 1.9 5.8----30.06+0.05 58.1 60.4 53.2---
2024-02-28 08:50 pm NW 5.8 7.8 4.6 147.2 SW30.06- 58.3 60.4 53.4---
2024-02-28 08:40 pmWNW 3.9 7.8----30.05- 58.3 60.4 53.4---
2024-02-28 08:30 pmWNW 7.8 9.7----30.05- 58.3 60.4 53.6---
2024-02-28 08:20 pmWNW 7.8 11.7 4.3 146.6 SW30.05- 58.3 60.4 53.8---
2024-02-28 08:10 pmWNW 7.8 11.7----30.04- 58.5 60.4 54.3---
2024-02-28 08:00 pmWNW 7.8 11.7----30.04+0.04 58.6 60.4 54.3---
2024-02-28 07:50 pmWNW 7.8 11.7 3.9 126.6 W30.04- 58.6 60.4 54.3---
2024-02-28 07:40 pmWNW 9.7 11.7----30.03- 58.8 60.4 54.3---
2024-02-28 07:30 pmWNW 9.7 11.7----30.03- 59.0 60.4 54.7---
2024-02-28 07:20 pmWNW 9.7 11.7 4.3 146.6WSW30.02- 59.0 60.4 54.5---
2024-02-28 07:10 pmWNW 9.7 11.7 4.3-6.6WSW30.02- 59.2 60.4 54.5---
2024-02-28 07:00 pmWNW 9.7 13.6----30.02+0.03 59.2 60.4 54.5---
2024-02-28 06:50 pmWNW 9.7 13.6 4.6 146.9 SW30.02- 59.2 60.4 54.3---
2024-02-28 06:40 pmWNW 11.7 13.6----30.01- 59.4 60.4 54.5---
2024-02-28 06:30 pmWNW 11.7 13.6----30.01- 59.4 60.4 54.5---
2024-02-28 06:20 pmWNW 11.7 15.5 3.9 156.2 SW30.01- 59.4 60.6 54.3---
2024-02-28 06:10 pmWNW 11.7 17.5----30.01- 59.5 60.6 54.5---
2024-02-28 06:00 pmWNW 11.7 15.5----30.01+0.01 59.5 60.4 54.5---
2024-02-28 05:50 pmWNW 11.7 15.5 4.3 146.6 SW30.01- 59.5 60.4 54.1---
2024-02-28 05:40 pm W 11.7 13.6 4.3-6.6 SW30.01- 59.5- 54.1---
2024-02-28 05:30 pm W 11.7 15.5----30.01- 59.7 60.6 54.0---
2024-02-28 05:20 pm W 11.7 15.5 4.3 146.4 SW30.00- 59.7 60.6 54.0---
2024-02-28 05:10 pm W 13.6 15.5 4.3-6.4 SW30.00- 59.7 60.6 53.8---
2024-02-28 05:00 pm W 13.6 15.5----30.00+0.00 59.7 60.6 53.6---
2024-02-28 04:50 pm W 13.6 15.5 3.9 146.6 SW30.00- 59.7 60.6 54.1---
2024-02-28 04:40 pm W 13.6 15.5----30.00- 59.7 60.6 54.0---
2024-02-28 04:30 pm W 13.6 15.5----30.00- 59.7 60.6 54.0---
2024-02-28 04:20 pm W 13.6 15.5 4.3 146.9WSW30.00- 59.7 60.6 54.1---
2024-02-28 04:10 pm W 11.7 15.5 4.3-6.9WSW30.00- 59.7 60.6 54.3---
2024-02-28 04:00 pm W 11.7 15.5----30.00-0.02 59.7 60.8 54.1---
2024-02-28 03:50 pm W 13.6 15.5 4.3 137.1WSW30.00- 59.5 60.8 53.8---
2024-02-28 03:40 pm W 13.6 15.5----30.00- 59.7 61.0 53.8---
2024-02-28 03:30 pm W 11.7 13.6----30.00- 59.9 61.2 54.0---
2024-02-28 03:20 pm W 11.7 15.5 4.3 147.1SSW30.00- 59.9 61.2 53.8---
2024-02-28 03:10 pm W 11.7 13.6----30.00- 59.9 61.5 53.8---
2024-02-28 03:00 pm W 11.7 13.6----30.00-0.04 59.9 61.7 53.8---
2024-02-28 02:50 pm W 11.7 13.6 4.3 147.6WSW30.00- 59.9 61.5 53.6---
2024-02-28 02:40 pm W 9.7 13.6 4.3-7.6WSW30.00- 59.9 61.5 54.0---
2024-02-28 02:30 pm W 11.7 13.6----30.00- 59.9 61.7 54.0---
2024-02-28 02:20 pm W 9.7 11.7 4.3 147.6SSW30.00- 59.7 61.7 54.0---
2024-02-28 02:10 pm W 9.7 11.7 4.3-7.6SSW30.00- 59.7 61.7 54.0---
2024-02-28 02:00 pm W 7.8 11.7----30.00-0.04 59.5 61.7 53.6---
2024-02-28 01:50 pm W 7.8 9.7 3.6 147.3WSW30.00- 59.5 61.7 53.4---
2024-02-28 01:40 pm W 7.8 9.7----30.01- 59.4 61.9 53.2---
2024-02-28 01:30 pm W 7.8 9.7----30.01- 59.4 61.7 53.4---
2024-02-28 01:20 pm W 7.8 9.7 4.6 157.9 SW30.01- 59.4 61.5 53.2---
2024-02-28 01:10 pm W 7.8 9.7 4.6-7.9 SW30.01- 59.2 61.3 53.1---
2024-02-28 01:00 pm W 7.8 9.7----30.01-0.03 59.2 61.0 52.7---
2024-02-28 12:50 pm W 7.8 9.7 4.6 148.0WSW30.02- 59.2 60.8 52.7---
2024-02-28 12:40 pm W 7.8 9.7----30.02- 59.2 60.8 52.7---
2024-02-28 12:30 pm W 7.8 9.7----30.03- 59.2 60.8 52.5---
2024-02-28 12:20 pm W 5.8 9.7 4.9 158.4 SW30.03- 59.2 60.8 52.3---
2024-02-28 12:10 pm W 5.8 7.8 4.9-8.4 SW30.03- 59.2 60.8 52.0---
2024-02-28 12:00 pm W 5.8 7.8----30.03+0.00 59.2 60.8 52.0---
2024-02-28 11:50 am W 3.9 5.8 4.3 147.7 SW30.04- 59.0 60.8 52.0---
2024-02-28 11:40 am W 3.9 5.8----30.04- 59.2 60.8 52.5---
2024-02-28 11:30 am W 3.9 7.8----30.04- 59.2 60.8 52.0---
2024-02-28 11:20 am W 1.9 3.9 4.6 148.0WSW30.05- 59.2 61.0 51.6---
2024-02-28 11:10 am W 1.9 3.9 4.6-8.0WSW30.05- 59.4 60.8 51.6---
2024-02-28 11:00 am W 1.9 3.9----30.05+0.01 59.4- 52.0---
2024-02-28 10:50 amWNW 1.9 3.9 4.6 107.9 W30.05- 59.0 60.6 51.8---
2024-02-28 10:40 amWNW 3.9 5.8----30.05- 58.8 60.6 51.4---
2024-02-28 10:30 amNNW 1.9 3.9----30.05- 59.5 60.6 51.4---
2024-02-28 10:20 amWSW 1.9 3.9 4.6 158.6 SW30.05- 59.4 60.8 51.3---
2024-02-28 10:10 am W 1.9 3.9 4.6-8.6 SW30.05- 59.0 60.8 50.9---
2024-02-28 10:00 amWNW 1.9 3.9----30.04+0.03 58.8 60.6 50.9---
2024-02-28 09:50 am W 1.9 3.9 4.3 148.5 SW30.04- 58.8 60.6 51.3---

Detailed Wave Summary
for 46086 as of (9:10 am PST)
1710 GMT on 02/29/2024:

These wave data are displayed in rounded times.

     

Click on the graph icon in the table below to see a time series plot of the last five days of that observation.

5-day plot - Significant Wave Height Significant Wave Height (WVHT): 3.3 ft
5-day plot - Swell Height Swell Height (SwH): 3.3 ft
5-day plot - Swell Period Swell Period (SwP): 12.1 sec
5-day plot - Swell Direction Swell Direction (SwD): W
5-day plot - Wind Wave Height Wind Wave Height (WWH): 0.7 ft
5-day plot - Wind Wave Period Wind Wave Period (WWP): 4.0 sec
5-day plot - Wind Wave Direction Wind Wave Direction (WWD): W
5-day plot - Wave Steepness Wave Steepness (STEEPNESS): SWELL
5-day plot - Average Wave Period Average Wave Period (APD): 7.1 sec
Previous observations
TIME
(PST)
5-day plot - Wave Height
WVHT
ft
5-day plot - Swell Height
SwH
ft
5-day plot - Swell Period
SwP
sec
5-day plot - Swell Direction
SwD
 
5-day plot - Wind Wave Height
WWH
ft
5-day plot - Wind Wave Period
WWP
sec
5-day plot - Wind Wave Direction
WWD
 
5-day plot - Wave Steepness
STEEPNESS
 
5-day plot - Average Wave Period
APD
sec
2024-02-29 08:40 am 3.6 3.6 13.8SSW 0.7 3.4 W SWELL 7.4
2024-02-29 08:10 am 3.3 3.3 13.8 S 0.7 3.8 W SWELL 7.2
2024-02-29 07:40 am 3.3 3.3 12.9WSW 1.0 3.7 W SWELL 6.9
2024-02-29 07:10 am 3.6 3.6 12.9WSW 1.0 3.8 W SWELL 7.1
2024-02-29 06:40 am 3.3 3.3 12.9 SW 1.0 4.0 W SWELL 7.0
2024-02-29 06:10 am 3.3 3.0 13.8 SW 0.7 3.8 W SWELL 6.8
2024-02-29 05:40 am 3.3 3.3 13.8 SW 1.0 4.0 W SWELL 7.2
2024-02-29 05:10 am 3.6 3.3 12.9WSW 1.0 4.0 W SWELL 7.1
2024-02-29 04:40 am 3.6 3.6 12.9WSW 1.0 3.6 W SWELL 7.4
2024-02-29 04:10 am 3.3 3.3 13.8 SW 1.0 3.7 W SWELL 6.7
2024-02-29 03:40 am 3.3 3.3 13.8WSW 1.0 3.8 W SWELL 6.8
2024-02-29 03:10 am 3.6 3.6 13.8SSW 1.0 3.4 W SWELL 6.9
2024-02-29 02:40 am 4.3 4.3 13.8 SW 1.0 4.0 W SWELL 7.7
2024-02-29 02:10 am 3.6 3.6 13.8 SW 1.0 4.0 W SWELL 7.2
2024-02-29 01:40 am 3.6 3.6 12.9WSW 1.0 3.7 W SWELL 7.1
2024-02-29 01:10 am 3.6 3.3 13.8 SW 1.0 3.8 W SWELL 6.7
2024-02-29 12:40 am 4.3 3.9 13.8WSW 1.0 3.4 WNW SWELL 7.2
2024-02-29 12:10 am 3.9 3.9 13.8 SW 1.0 3.8 W SWELL 7.1
2024-02-28 11:40 pm 3.6 3.6 13.8WSW 1.0 3.7 WNW SWELL 6.8
2024-02-28 11:10 pm 4.3 4.3 13.8 SW 1.0 3.4 WNW SWELL 7.4
2024-02-28 10:40 pm 3.9 3.9 13.8 SW 1.3 3.3 WNW SWELL 6.8
2024-02-28 10:10 pm 3.9 3.6 12.1WSW 1.3 3.6 W SWELL 6.6
2024-02-28 09:40 pm 4.3 3.9 13.8 SW 1.3 3.1 WNW SWELL 6.9
2024-02-28 09:10 pm 3.9 3.9 12.1 W 1.3 3.3 WNW SWELL 6.5
2024-02-28 08:40 pm 4.6 4.3 13.8 SW 1.3 3.3 WNW SWELL 7.2
2024-02-28 08:10 pm 4.3 3.9 13.8 SW 1.3 3.4 WNW SWELL 6.6
2024-02-28 07:40 pm 3.9 3.6 12.1 W 1.3 3.3 WNW SWELL 6.6
2024-02-28 07:10 pm 4.3 3.9 13.8WSW 1.3 2.9 W SWELL 6.6
2024-02-28 06:40 pm 4.6 4.3 13.8 SW 1.6 5.0 W SWELL 6.9
2024-02-28 06:10 pm 3.9 3.6 14.8 SW 1.6 5.6 W SWELL 6.2
2024-02-28 05:40 pm 4.3 3.9 13.8 SW 1.6 2.9 W SWELL 6.6
2024-02-28 05:10 pm 4.3 3.9 13.8 SW 1.6 2.9 W SWELL 6.4
2024-02-28 04:40 pm 3.9 3.6 13.8 SW 1.6 5.3 W SWELL 6.6
2024-02-28 04:10 pm 4.3 3.9 13.8WSW 1.6 5.6 W SWELL 6.9
2024-02-28 03:40 pm 4.3 3.9 12.9WSW 1.6 5.0 W SWELL 7.1
2024-02-28 03:10 pm 4.3 3.9 13.8SSW 1.3 4.8 W SWELL 7.1
2024-02-28 02:40 pm 4.3 4.3 13.8WSW 1.3 3.4 W SWELL 7.6
2024-02-28 02:10 pm 4.3 4.3 13.8SSW 1.0 3.6 W SWELL 7.6
2024-02-28 01:40 pm 3.6 3.6 13.8WSW 0.7 3.1 W SWELL 7.3
2024-02-28 01:10 pm 4.6 4.3 14.8 SW 0.7 3.8 W SWELL 7.9
2024-02-28 12:40 pm 4.6 4.6 13.8WSW 0.7 4.0 W SWELL 8.0
2024-02-28 12:10 pm 4.9 4.6 14.8 SW 0.7 3.2 WNW SWELL 8.4
2024-02-28 11:40 am 4.3 4.3 13.8 SW 0.7 3.6 W SWELL 7.7
2024-02-28 11:10 am 4.6 4.3 13.8WSW 0.7 3.8 W SWELL 8.0
2024-02-28 10:40 am 4.6 4.3 10.0 W 0.7 4.0 W SWELL 7.9
2024-02-28 10:10 am 4.6 4.6 14.8 SW 0.7 3.7 W SWELL 8.6

Plot of wave energy versus frequency (and period)